[[{"header":{"parameterUnit":"m.s-1","parameterCategory":1,"la1":30.2991,"la2":30.254,"lo1":-89.0895,"lo2":-89.0444,"dy":0.0017,"dx":0.0017,"nx":28,"ny":28,"refTime":"2024-05-12T21:00:00:Z","depth":0,"parameterNumber":2,"parameterNumberName":"U-component_of_WINDS"},"data":[0,0,0,0,0,0,0,0,0,0,0,0,0,0,0,0,0,0,0,0,0,0,0,0,0,0,0,0,0,0,0,0,0,0,0,0,0,0,0,0,0,0,0,0,0,0,0,0,0,0,0,0,0,0,0,0,0,0,-0.7929,-0.7928,0,-0.7857,-0.7857,-0.7856,-0.7848,-0.7849,-0.7849,-0.785,-0.7772,-0.7769,-0.7767,0,0,0,0,0,0,0,0,0,0,0,0,0,-0.8056,-0.8053,-0.7929,-0.7928,-0.7927,-0.7858,-0.7857,-0.7856,-0.7848,-0.7849,-0.785,-0.785,-0.7773,-0.777,-0.7766,0,0,0,0,0,0,0,0,0,0,0,0,0,-0.7994,-0.8053,-0.7929,-0.7915,-0.7913,-0.7858,-0.7857,-0.7855,-0.7848,-0.7849,-0.785,-0.7851,-0.7774,-0.777,-0.7766,-0.7718,0,0,-0.7753,-0.7751,0,0,0,0,0,0,0,0,-0.7997,-0.7989,-0.7918,-0.7916,-0.7914,-0.7863,-0.7873,-0.7809,-0.7847,-0.7872,-0.785,-0.7851,-0.7801,-0.7795,-0.7779,-0.7715,-0.7711,-0.7753,-0.775,-0.7749,-0.7747,0,0,0,0,0,0,0,-0.8002,-0.7992,-0.7901,-0.7917,-0.7914,-0.7911,-0.7904,-0.7861,-0.7831,-0.787,-0.787,-0.7861,-0.78,-0.7783,-0.7777,-0.771,-0.7753,-0.7749,-0.7747,-0.7745,-0.7604,-0.7603,0,0,0,0,0,0,-0.8009,-0.7996,-0.7903,-0.7898,-0.7959,-0.7908,-0.79,-0.7878,-0.7832,-0.7826,-0.7861,-0.7861,-0.7789,-0.7782,-0.7774,-0.7716,-0.7749,-0.7745,-0.7742,-0.7605,-0.7604,-0.7602,0,0,0,0,0,0,-0.8012,-0.8001,-0.7906,-0.7947,-0.7935,-0.7905,-0.788,-0.7876,-0.7859,-0.7824,-0.7819,-0.7849,-0.779,-0.778,-0.7733,-0.7713,-0.7743,-0.7739,-0.7607,-0.7605,-0.7603,-0.7598,0,0,0,0,0,0,-0.8016,-0.8002,-0.7984,-0.7947,-0.7933,-0.7867,-0.7879,-0.7874,-0.7852,-0.7853,-0.7812,-0.7806,-0.779,-0.7739,-0.7729,-0.7708,-0.7736,-0.7608,-0.7606,-0.7604,-0.76,-0.7596,-0.7593,0,0,0,0,0,-0.802,-0.7985,-0.7983,-0.7972,-0.791,-0.7865,-0.7857,-0.7841,-0.7851,-0.7832,-0.781,-0.7807,-0.7717,-0.7734,-0.7722,-0.77,-0.7609,-0.7606,-0.7604,-0.7601,-0.7597,-0.7593,0,0,0,0,0,0,-0.8019,-0.7979,-0.7978,-0.7929,-0.7901,-0.7864,-0.784,-0.7837,-0.7804,-0.7805,-0.7785,-0.7776,-0.773,-0.771,-0.773,-0.7652,-0.7664,-0.7659,-0.7666,-0.7662,-0.7659,-0.7664,-0.7732,0,0,0,0,0,-0.8013,-0.7981,-0.7948,-0.7909,-0.7895,-0.787,-0.785,-0.784,-0.781,-0.7797,-0.7772,-0.7741,-0.7706,-0.7683,-0.7648,-0.7597,-0.7588,-0.7576,-0.7573,-0.757,-0.7566,-0.7538,-0.7532,-0.7593,-0.7593,-0.7593,0,0,-0.8,-0.7975,-0.7956,-0.7908,-0.7885,-0.7852,-0.786,-0.7824,-0.7799,-0.7791,-0.7746,-0.7726,-0.769,-0.7641,-0.7618,-0.7623,-0.7547,-0.7567,-0.7565,-0.7562,-0.7534,-0.7529,-0.7523,-0.7591,-0.7591,-0.7592,0,0,-0.796,-0.7938,-0.7903,-0.788,-0.7846,-0.783,-0.7822,-0.7786,-0.7774,-0.7728,-0.7722,-0.7691,-0.7631,-0.7606,-0.7585,-0.7538,-0.7533,-0.7527,-0.7509,-0.7482,-0.7477,-0.7473,-0.7456,-0.745,-0.7522,-0.7522,-0.7522,0,-0.7948,-0.7899,-0.7885,-0.785,-0.7829,-0.7823,-0.7786,-0.7765,-0.772,-0.7705,-0.7712,-0.7638,-0.7613,-0.7558,-0.7547,-0.753,-0.752,-0.7531,-0.7479,-0.7475,-0.747,-0.7454,-0.7448,-0.7522,-0.7522,-0.7522,-0.7522,0,-0.7886,-0.7853,-0.7828,-0.7788,-0.7764,-0.7728,-0.7708,-0.7686,-0.7678,-0.7661,-0.7615,-0.7586,-0.7546,-0.7532,-0.7524,-0.7476,-0.7481,-0.7484,-0.7495,-0.7464,-0.7449,-0.7442,-0.7521,-0.7521,-0.7521,-0.7521,0,0,-0.7842,-0.7796,-0.7787,-0.7769,-0.7732,-0.7704,-0.7669,-0.7632,-0.7613,-0.7583,-0.7552,-0.7502,-0.7505,-0.7481,-0.747,-0.7447,-0.7411,-0.7452,-0.7451,-0.7446,-0.7357,-0.7355,-0.7348,-0.7409,-0.7407,-0.7406,-0.736,0,-0.7798,-0.7736,-0.7722,-0.7668,-0.7637,-0.7631,-0.76,-0.7573,-0.7557,-0.7527,-0.7508,-0.7473,-0.748,-0.7466,-0.7442,-0.7421,-0.7393,-0.7424,-0.7379,-0.7377,-0.7388,-0.734,-0.7337,-0.7295,-0.7354,-0.7353,-0.7352,0,-0.7737,-0.7708,-0.7652,-0.7619,-0.7606,-0.7578,-0.7543,-0.7515,-0.7485,-0.7474,-0.745,-0.7441,-0.7403,-0.7418,-0.7364,-0.7386,-0.7367,-0.7353,-0.7351,-0.7346,-0.7363,-0.7333,-0.7281,-0.7275,-0.7342,-0.7343,-0.7344,0,-0.7711,-0.7657,-0.7617,-0.7601,-0.7563,-0.7544,-0.7526,-0.7497,-0.7476,-0.7445,-0.7431,-0.7396,-0.7376,-0.7348,-0.7331,-0.7343,-0.7279,-0.7292,-0.7268,-0.7269,-0.7254,-0.7256,-0.7199,-0.7243,-0.7243,-0.7243,-0.7243,0,-0.7663,-0.7628,-0.7604,-0.7579,-0.754,-0.7525,-0.7487,-0.747,-0.7444,-0.7415,-0.7407,-0.7379,-0.7358,-0.7327,-0.7313,-0.7271,-0.7262,-0.7252,-0.7248,-0.7252,-0.7254,-0.7239,-0.7241,-0.7241,-0.7242,-0.7242,-0.7242,0,-0.7626,-0.7609,-0.7564,-0.7532,-0.7523,-0.7496,-0.7468,-0.7443,-0.7428,-0.7391,-0.7381,-0.7356,-0.7319,-0.7299,-0.7253,-0.7243,-0.7197,-0.7195,-0.7207,-0.7206,-0.7184,-0.7186,-0.7115,-0.7105,-0.7156,-0.7156,-0.7155,0,-0.7596,-0.757,-0.7536,-0.7517,-0.75,-0.7468,-0.7447,-0.7432,-0.741,-0.7374,-0.7353,-0.7317,-0.7287,-0.7229,-0.7205,-0.717,-0.7167,-0.7144,-0.7161,-0.7166,-0.7166,-0.7168,-0.7165,-0.7141,-0.7141,-0.714,-0.714,0,-0.7545,-0.7538,-0.7509,-0.7477,-0.7453,-0.7426,-0.74,-0.7384,-0.7364,-0.734,-0.7304,-0.7281,-0.7235,-0.7198,-0.7161,-0.7142,-0.7137,-0.7135,-0.7128,-0.7131,-0.714,-0.7135,-0.7199,-0.7137,-0.7137,-0.7137,-0.7137,-0.7138,-0.7511,-0.7487,-0.746,-0.7428,-0.7407,-0.7383,-0.7359,-0.7341,-0.7311,-0.7273,-0.7265,-0.7227,-0.7197,-0.7148,-0.7128,-0.7097,-0.7101,-0.7091,-0.7088,-0.7085,-0.7085,-0.7146,-0.709,-0.709,-0.709,-0.709,-0.709,0,-0.7459,-0.7442,-0.7413,-0.7377,-0.7352,-0.7352,-0.7323,-0.7301,-0.7268,-0.7242,-0.7214,-0.7172,-0.7137,-0.7112,-0.7076,-0.7056,-0.7053,-0.7047,-0.7048,-0.7044,-0.7083,-0.7093,-0.7051,-0.7051,-0.7051,-0.7051,-0.7051,-0.7051,-0.743,-0.739,-0.7381,-0.7331,-0.7313,-0.7277,-0.7261,-0.7238,-0.7217,-0.7172,-0.7144,-0.7128,-0.7102,-0.7065,-0.7033,-0.7026,-0.7013,-0.7007,-0.7,-0.7037,-0.7041,-0.7045,-0.7054,-0.7005,-0.7005,-0.6964,-0.6964,-0.6963]},{"header":{"parameterUnit":"m.s-1","parameterCategory":1,"la1":30.2991,"la2":30.254,"lo1":-89.0895,"lo2":-89.0444,"dy":0.0017,"dx":0.0017,"nx":28,"ny":28,"refTime":"2024-05-12T21:00:00:Z","depth":0,"parameterNumber":3,"parameterNumberName":"V-component_of_WINDS"},"data":[0,0,0,0,0,0,0,0,0,0,0,0,0,0,0,0,0,0,0,0,0,0,0,0,0,0,0,0,0,0,0,0,0,0,0,0,0,0,0,0,0,0,0,0,0,0,0,0,0,0,0,0,0,0,0,0,0,0,5.1127,5.1127,0,5.1194,5.1195,5.1195,5.1161,5.1159,5.1158,5.1156,5.1221,5.1224,5.1227,0,0,0,0,0,0,0,0,0,0,0,0,0,5.0966,5.0969,5.1126,5.1127,5.1128,5.1194,5.1195,5.1196,5.1162,5.1159,5.1157,5.1155,5.122,5.1224,5.1228,0,0,0,0,0,0,0,0,0,0,0,0,0,5.1034,5.097,5.1126,5.1119,5.1119,5.1194,5.1195,5.1196,5.1162,5.1159,5.1157,5.1154,5.1218,5.1223,5.1228,5.1312,0,0,5.1244,5.1246,0,0,0,0,0,0,0,0,5.103,5.104,5.1119,5.112,5.112,5.1167,5.1162,5.1235,5.1163,5.1146,5.1156,5.1153,5.1205,5.1211,5.1229,5.1315,5.1318,5.1244,5.1247,5.1249,5.1251,0,0,0,0,0,0,0,5.1026,5.1037,5.1153,5.1121,5.1121,5.1112,5.1119,5.1175,5.1189,5.1147,5.1145,5.1153,5.1204,5.1224,5.123,5.1319,5.1244,5.1248,5.1251,5.1253,5.1479,5.1481,0,0,0,0,0,0,5.1022,5.1033,5.1151,5.1155,5.1068,5.1117,5.1124,5.1154,5.1188,5.1191,5.1155,5.1151,5.1217,5.1224,5.1232,5.1333,5.1249,5.1254,5.1257,5.1476,5.1479,5.1482,0,0,0,0,0,0,5.1018,5.1033,5.1148,5.1094,5.1108,5.1122,5.1156,5.1157,5.1177,5.1195,5.1197,5.1173,5.1215,5.1225,5.1293,5.1335,5.1256,5.1261,5.1472,5.1477,5.1481,5.1535,0,0,0,0,0,0,5.1014,5.1032,5.1064,5.1095,5.1111,5.1209,5.1159,5.116,5.1186,5.1181,5.1212,5.1215,5.1214,5.1286,5.1298,5.134,5.1265,5.1468,5.1474,5.1479,5.1529,5.154,5.155,0,0,0,0,0,5.1008,5.1075,5.1066,5.108,5.1152,5.1211,5.122,5.1219,5.119,5.1222,5.1234,5.1214,5.1329,5.1293,5.1307,5.1351,5.1466,5.1473,5.1479,5.1524,5.1538,5.155,0,0,0,0,0,0,5.1046,5.1079,5.1069,5.1148,5.1177,5.1205,5.1245,5.1233,5.127,5.1264,5.126,5.1267,5.1338,5.1351,5.1311,5.1435,5.1393,5.1402,5.1423,5.1436,5.1446,5.144,5.1269,0,0,0,0,0,5.1065,5.1111,5.1137,5.1204,5.1219,5.1231,5.1256,5.1253,5.1283,5.1294,5.1311,5.1339,5.1382,5.141,5.145,5.1532,5.1538,5.1569,5.158,5.1588,5.1596,5.1641,5.1655,5.1504,5.1504,5.1504,0,0,5.1101,5.1125,5.1154,5.1212,5.1234,5.1282,5.1241,5.1292,5.1327,5.1301,5.1367,5.1381,5.1412,5.1488,5.1522,5.1501,5.164,5.1597,5.1603,5.1606,5.1649,5.1663,5.1676,5.1509,5.1508,5.1507,0,0,5.1192,5.1215,5.1274,5.1298,5.1334,5.1341,5.1356,5.1386,5.1395,5.1461,5.1443,5.1485,5.1558,5.1582,5.1603,5.1707,5.169,5.1721,5.1774,5.1818,5.183,5.184,5.1877,5.189,5.1729,5.1729,5.1729,0,5.1232,5.1304,5.1305,5.1359,5.1385,5.1367,5.1427,5.145,5.1496,5.1514,5.1491,5.1584,5.1604,5.1685,5.1711,5.1729,5.1745,5.1716,5.1828,5.1839,5.1848,5.1883,5.1897,5.1732,5.1732,5.1732,5.1731,0,5.1352,5.1403,5.1446,5.1493,5.1525,5.1581,5.159,5.1621,5.1617,5.1627,5.1695,5.1719,5.1764,5.1784,5.1779,5.1865,5.1851,5.1829,5.1786,5.1866,5.1899,5.1912,5.1737,5.1736,5.1735,5.1734,0,0,5.1465,5.1516,5.1531,5.1553,5.1592,5.1631,5.1687,5.1733,5.176,5.1794,5.184,5.1904,5.1885,5.1909,5.1907,5.1946,5.2027,5.1919,5.1919,5.1937,5.2123,5.2138,5.2154,5.2017,5.202,5.2022,5.212,0,5.1558,5.1657,5.1661,5.1751,5.1798,5.1783,5.1832,5.1861,5.1873,5.1914,5.1926,5.1972,5.1942,5.1957,5.1995,5.2009,5.2064,5.2002,5.2059,5.2061,5.2049,5.2171,5.2187,5.2278,5.2133,5.2135,5.2137,0,5.1679,5.1718,5.1814,5.1848,5.1868,5.1912,5.1955,5.1995,5.2028,5.2034,5.2064,5.2057,5.2114,5.2072,5.215,5.2108,5.2132,5.2143,5.2146,5.215,5.2102,5.2176,5.2308,5.2321,5.2157,5.2155,5.2154,0,5.1751,5.1828,5.1895,5.1915,5.1957,5.1988,5.2007,5.2038,5.2066,5.2104,5.2123,5.2167,5.219,5.2224,5.2229,5.2199,5.2308,5.2266,5.2314,5.2314,5.2335,5.2333,5.2471,5.2354,5.2353,5.2353,5.2353,0,5.1853,5.1911,5.1928,5.1969,5.2035,5.2039,5.2104,5.212,5.2149,5.2192,5.2183,5.2224,5.2229,5.2272,5.2276,5.234,5.2351,5.2357,5.2357,5.2357,5.2356,5.2371,5.2364,5.2357,5.2356,5.2355,5.2355,0,5.1942,5.1956,5.2029,5.2064,5.2075,5.2121,5.2151,5.219,5.2203,5.2258,5.2271,5.229,5.234,5.2349,5.2407,5.2411,5.2487,5.2482,5.2476,5.2475,5.2521,5.2516,5.2671,5.2692,5.2563,5.2564,5.2565,0,5.2005,5.2051,5.2092,5.2122,5.2143,5.219,5.222,5.2227,5.2258,5.2301,5.2335,5.2385,5.2424,5.2504,5.2522,5.2567,5.2562,5.2614,5.2568,5.2567,5.2561,5.2558,5.2563,5.2621,5.2622,5.2624,5.2624,0,5.2116,5.2121,5.2165,5.2212,5.2249,5.2286,5.232,5.2345,5.2357,5.2392,5.2444,5.2475,5.2537,5.2586,5.2631,5.265,5.2639,5.2639,5.2652,5.2651,5.2646,5.2649,5.2498,5.2635,5.2634,5.2633,5.2632,5.2632,5.2193,5.2233,5.2269,5.2319,5.2347,5.2381,5.242,5.2438,5.2482,5.2533,5.2535,5.2592,5.2626,5.2686,5.2708,5.2752,5.2736,5.2755,5.276,5.2764,5.2768,5.2641,5.2761,5.2761,5.276,5.276,5.276,0,5.2302,5.2326,5.2372,5.2422,5.2462,5.2451,5.249,5.2523,5.2574,5.2607,5.2648,5.2708,5.2756,5.278,5.2827,5.2858,5.2855,5.2871,5.2867,5.2872,5.278,5.2764,5.2873,5.2873,5.2873,5.2873,5.2873,5.2873,5.2363,5.243,5.2441,5.2522,5.2545,5.2602,5.2625,5.2656,5.2683,5.2751,5.2792,5.2808,5.2838,5.2888,5.2932,5.2938,5.2955,5.2973,5.2976,5.289,5.2878,5.2867,5.2851,5.2977,5.2977,5.3064,5.3065,5.3066]}]]